Wind_Speed
3 3 4 6 7 8 9 9 10 10 10 10 10 10 10 9 9 8 8 8 9 11 11 10 9 5 8 7 11 13 12 11 7 7 7 6 4 4 3 4 3 4 4
1 0 2 4 6 5 7 8 9 9 10 9 8 8 10 10 7 7 6 6 8 10 10 9 9 9 8 11 8 17 16 14 12 9 9 8 7 5 5 4 5 5 5
2 3 4 6 6 6 5 6 7 9 9 9 9 9 8 9 10 9 9 8 9 13 13 12 9 9 9 8 7 10 19 19 16 13 12 11 10 9 7 5 5 6 6
1 3 5 6 7 8 8 8 9 9 10 10 10 11 10 10 10 9 7 7 9 10 13 14 13 10 10 10 10 10 14 21 21 18 17 13 13 11 10 8 7 7 7
5 7 8 9 9 10 9 11 12 10 11 12 11 10 11 12 11 10 10 13 13 16 15 13 12 14 11 11 10 9 10 17 16 16 15 15 14 14 13 12 10 8 8
8 10 10 11 11 11 9 10 11 10 11 13 13 12 13 17 16 15 14 16 16 18 17 19 13 12 13 12 11 12 13 9 9 12 17 17 18 16 15 15 14 12 10
8 10 10 11 10 10 9 10 11 12 14 15 16 16 16 16 15 16 15 15 16 17 18 19 19 16 14 15 14 14 11 7 10 7 18 21 20 18 17 17 16 16 14
7 8 9 9 9 9 9 10 12 12 14 16 18 18 18 16 15 15 15 15 15 17 19 17 18 18 19 21 17 18 16 10 10 9 11 21 18 21 19 18 18 18 17
8 10 9 9 7 7 8 8 12 13 12 11 12 15 18 22 22 18 15 13 14 16 17 19 19 18 19 20 19 15 20 22 17 13 14 12 19 23 22 20 20 21 19
13 13 12 11 9 5 6 10 14 12 15 16 16 16 16 20 18 19 20 18 15 14 17 19 21 20 17 19 16 17 22 23 20 14 12 17 19 26 26 27 24 23 22
10 12 13 11 8 6 9 13 13 14 16 18 18 22 29 15 9 12 11 16 18 15 17 18 18 20 18 16 15 12 17 19 15 21 21 15 15 17 31 25 27 26 25
10 10 9 7 5 8 11 13 12 12 16 18 19 23 29 25 12 11 14 14 16 14 16 17 18 17 14 10 13 16 16 13 15 19 20 20 18 23 20 19 24 30 28
10 7 6 7 8 7 9 11 12 12 14 17 21 22 24 23 20 19 15 14 16 16 17 19 19 15 10 10 14 17 18 18 18 20 27 24 26 21 23 25 25 32 32
11 10 8 6 5 4 7 11 11 11 13 15 18 21 23 23 20 20 20 18 20 20 18 17 20 19 17 14 15 16 19 17 13 18 23 30 31 26 26 25 23 29 36
7 7 8 7 8 10 11 12 12 12 12 13 14 16 19 21 22 22 21 21 20 19 20 18 17 17 16 16 16 19 20 20 22 21 25 30 31 28 28 25 25 27 26
8 8 8 8 8 8 9 10 11 11 12 13 16 16 17 21 23 24 24 23 22 22 21 18 18 17 16 16 16 16 18 20 21 22 20 19 25 22 29 30 25 24 24
9 9 10 9 7 5 6 8 9 12 14 14 15 16 17 21 23 23 24 25 24 23 22 25 21 19 21 19 18 18 17 19 19 18 16 17 24 26 30 26 27 27 24
11 12 11 12 16 15 12 11 14 15 16 18 19 17 17 19 22 25 27 29 29 27 24 24 28 26 23 22 22 21 17 18 20 17 16 17 18 22 29 30 26 28 28
16 17 16 17 19 18 18 21 21 21 21 25 26 26 25 25 28 29 31 36 35 33 31 27 28 30 27 27 26 25 23 20 18 17 16 16 18 23 24 26 28 30 30
21 23 24 25 25 25 26 26 25 26 29 30 32 33 33 31 31 35 37 39 41 41 36 33 31 31 35 34 28 28 29 25 25 18 17 17 18 22 27 27 31 34 33
29 31 33 31 30 32 31 27 29 31 36 38 38 40 41 40 40 43 44 42 42 42 42 40 37 36 34 38 40 33 28 32 30 27 22 20 21 23 25 24 27 28 33
37 37 40 44 37 35 36 36 34 37 40 42 46 45 45 47 47 50 53 51 49 46 44 45 44 44 43 42 42 41 36 34 33 35 32 27 26 25 26 25 27 28 25
42 45 63 52 42 41 44 42 40 41 43 46 52 54 52 53 52 55 59 57 56 52 49 50 49 51 51 49 48 46 45 41 38 38 37 35 32 30 30 28 27 26 25
45 44 47 45 54 59 47 41 43 48 48 51 55 57 59 57 58 60 64 64 57 56 56 54 53 50 46 45 47 50 50 47 46 42 41 39 38 36 35 32 30 28 28
42 44 47 45 57 35 46 38 40 47 52 56 63 62 65 63 64 64 65 61 62 61 55 52 47 44 40 37 39 44 49 50 46 44 45 43 39 41 41 37 35 32 31
39 40 45 42 39 38 32 41 39 48 54 60 62 63 64 62 64 67 69 67 61 58 54 51 49 47 47 44 42 41 44 50 50 45 44 46 45 43 42 43 40 37 35
Wind_Direction
114 63 44 46 51 46 35 25 18 19 28 19 16 1 2 357 6 17 16 14 23 24 23 17 31 4 13 307 253 241 243 244 244 227 198 206 185 163 164 183 162 153 161
188 21 24 31 22 31 5 7 356 360 355 12 4 2 355 1 357 0 348 348 357 353 5 3 1 7 6 349 267 243 238 233 237 231 216 202 207 188 173 185 187 177 169
260 307 335 341 343 344 351 342 330 333 336 341 340 344 344 349 340 342 344 352 327 315 327 332 339 334 337 339 327 260 238 235 218 221 220 211 206 204 187 189 196 193 186
260 290 301 307 308 312 317 314 310 319 325 323 321 325 334 338 341 336 327 327 324 317 307 316 319 316 311 308 324 304 273 246 234 207 208 213 207 208 200 191 194 203 196
284 281 284 288 291 292 301 303 307 317 317 313 315 327 338 338 335 325 310 318 302 325 305 311 309 305 300 298 308 317 289 295 291 228 212 212 218 212 210 201 197 200 201
263 270 277 278 277 282 281 292 295 314 312 319 321 334 314 327 330 322 318 318 318 313 310 299 298 297 297 290 295 298 307 298 338 236 217 211 220 218 214 211 205 204 202
286 284 283 284 289 294 298 302 313 322 321 325 326 324 322 316 311 306 310 312 316 311 309 311 310 300 295 287 284 286 291 278 276 269 231 217 215 219 218 215 212 208 205
294 295 297 299 300 302 308 319 331 341 342 342 341 334 328 317 308 306 313 312 312 316 317 310 308 306 302 295 291 285 271 261 289 273 265 243 217 219 221 220 217 214 212
301 293 294 294 295 309 319 337 13 17 6 345 327 325 321 319 316 315 320 319 318 314 314 314 310 311 295 296 284 288 281 276 260 260 260 267 229 221 224 224 222 218 215
298 297 293 290 295 337 5 23 35 14 1 343 332 340 323 291 282 298 311 315 310 307 309 309 312 312 295 295 296 268 289 269 253 249 243 256 244 230 215 218 220 222 219
296 297 298 301 305 346 18 31 30 22 51 54 11 10 4 342 304 268 306 323 324 331 329 318 313 308 306 284 286 277 290 288 262 247 237 243 246 240 239 216 215 220 220
345 321 309 311 356 9 24 36 40 32 17 26 20 15 21 27 29 345 359 342 328 337 342 335 322 321 313 263 257 287 279 299 283 242 245 241 250 254 232 228 232 218 219
27 29 52 55 51 29 43 45 43 30 16 12 15 14 14 21 14 9 9 356 346 348 355 349 345 338 333 297 280 277 292 296 271 244 238 239 240 233 239 249 254 223 218
35 28 31 70 72 59 37 36 40 35 23 11 12 10 12 9 6 6 357 355 355 351 354 351 345 347 342 326 308 294 294 301 297 268 249 245 239 237 238 243 246 255 225
15 14 18 15 12 10 15 15 19 32 24 13 12 14 9 6 5 358 351 347 346 347 349 344 337 335 333 328 318 308 305 301 304 297 275 257 233 235 243 242 244 244 249
2 356 352 348 349 352 4 9 17 22 12 3 354 355 1 355 354 350 343 343 337 334 332 334 330 325 317 314 312 309 307 305 302 300 285 244 229 238 242 238 233 242 242
345 340 337 339 335 359 349 342 350 357 350 351 342 335 343 344 340 340 336 333 329 329 323 317 316 316 316 315 302 296 299 308 309 301 303 255 235 240 243 249 235 240 245
323 328 320 324 325 320 314 317 327 322 320 326 321 334 328 324 325 324 330 327 319 317 317 311 307 309 306 306 307 302 293 296 298 302 295 285 245 242 245 251 236 239 241
297 306 308 305 315 300 303 311 316 319 320 317 323 323 316 322 325 322 317 317 316 311 304 302 299 299 299 299 299 297 298 295 291 291 288 287 256 245 246 254 253 245 245
285 289 293 294 293 294 290 301 307 316 313 315 317 313 311 309 313 312 311 310 311 306 302 301 295 293 295 293 290 290 295 294 291 282 278 275 270 255 254 258 258 252 250
281 287 285 281 284 289 288 290 299 302 306 310 309 306 309 311 309 307 303 301 299 305 299 295 294 291 287 284 285 283 281 286 285 283 275 268 264 268 263 258 262 245 248
286 277 272 272 271 276 282 284 291 297 299 302 302 303 306 307 306 309 309 308 306 299 292 291 293 289 284 281 278 275 273 273 279 280 277 271 266 263 264 265 263 266 263
309 287 318 277 257 270 273 276 283 290 294 298 298 301 301 302 299 305 307 303 304 302 302 296 290 290 291 282 273 271 270 269 269 269 271 271 268 264 262 263 267 270 263
313 329 326 321 301 280 257 269 282 286 291 292 292 294 294 294 293 298 300 302 302 301 299 296 293 291 287 280 272 264 265 265 266 265 265 265 269 267 264 261 261 262 265
315 325 328 325 318 302 259 263 279 284 283 286 288 294 293 289 290 294 297 299 302 300 299 293 286 280 279 283 278 271 265 259 258 262 264 262 265 265 264 263 259 258 261
329 324 325 322 319 315 290 259 266 270 279 285 290 292 301 303 298 295 295 297 296 292 290 289 287 282 278 279 278 278 270 264 257 250 256 260 263 261 263 265 263 259 254
Height
5932 5932 5932 5931 5930 5929 5929 5927 5926 5924 5923 5920 5919 5919 5917 5915 5914 5912 5911 5909 5907 5906 5905 5903 5901 5899 5897 5896 5898 5898 5900 5902 5903 5903 5904 5905 5905 5906 5908 5909 5910 5911 5912
5933 5933 5933 5931 5931 5930 5929 5928 5926 5925 5923 5921 5920 5919 5918 5916 5915 5913 5911 5909 5908 5906 5905 5903 5901 5899 5898 5897 5896 5896 5897 5898 5901 5902 5903 5903 5904 5906 5906 5909 5910 5911 5912
5933 5933 5933 5932 5930 5930 5929 5927 5926 5925 5923 5921 5920 5919 5919 5916 5915 5913 5911 5910 5908 5905 5903 5902 5901 5899 5898 5897 5895 5894 5893 5895 5895 5899 5901 5902 5904 5905 5906 5908 5909 5911 5912
5932 5933 5932 5931 5930 5929 5928 5927 5925 5924 5923 5921 5919 5918 5917 5916 5915 5913 5909 5909 5907 5904 5902 5901 5900 5898 5896 5895 5894 5892 5890 5889 5890 5893 5896 5900 5901 5903 5904 5906 5908 5910 5911
5932 5931 5930 5929 5929 5927 5926 5924 5924 5922 5921 5920 5919 5917 5915 5915 5913 5912 5909 5907 5905 5901 5901 5900 5898 5897 5895 5894 5893 5891 5889 5887 5889 5892 5894 5897 5900 5901 5903 5905 5906 5909 5910
5929 5928 5928 5927 5926 5925 5924 5923 5922 5922 5921 5919 5918 5917 5916 5914 5912 5910 5908 5906 5905 5902 5900 5897 5895 5895 5894 5892 5890 5889 5888 5886 5888 5890 5892 5894 5896 5899 5901 5903 5904 5907 5909
5929 5929 5928 5927 5925 5924 5923 5922 5922 5923 5922 5921 5918 5916 5913 5911 5908 5905 5903 5902 5901 5899 5897 5895 5893 5892 5891 5890 5889 5888 5887 5886 5887 5887 5888 5891 5893 5896 5899 5901 5903 5905 5907
5928 5927 5927 5926 5924 5922 5922 5922 5923 5923 5922 5920 5918 5914 5911 5910 5906 5904 5901 5898 5896 5895 5894 5891 5889 5889 5887 5886 5885 5885 5885 5883 5884 5885 5885 5887 5890 5893 5895 5898 5901 5903 5905
5927 5926 5926 5924 5922 5920 5921 5922 5924 5922 5920 5916 5913 5911 5909 5905 5902 5900 5898 5897 5894 5891 5890 5889 5887 5885 5884 5882 5881 5882 5882 5878 5879 5882 5882 5884 5886 5888 5892 5895 5897 5900 5902
5925 5924 5923 5922 5920 5920 5921 5922 5923 5919 5917 5914 5912 5908 5904 5900 5898 5896 5893 5893 5892 5888 5885 5885 5883 5881 5880 5878 5878 5878 5878 5875 5877 5879 5879 5880 5882 5885 5887 5889 5892 5895 5899
5924 5922 5921 5919 5919 5922 5923 5925 5923 5920 5916 5912 5910 5906 5899 5891 5891 5892 5892 5891 5888 5884 5882 5881 5879 5878 5876 5876 5875 5874 5875 5873 5873 5874 5871 5875 5878 5878 5880 5884 5887 5890 5894
5923 5921 5919 5919 5920 5922 5923 5923 5923 5920 5915 5913 5909 5906 5901 5895 5893 5893 5892 5891 5888 5883 5879 5878 5876 5873 5871 5872 5872 5872 5871 5871 5871 5870 5871 5873 5873 5874 5874 5878 5881 5884 5888
5922 5921 5920 5920 5920 5921 5923 5922 5920 5918 5915 5912 5908 5906 5903 5900 5898 5896 5893 5891 5887 5881 5877 5875 5874 5872 5870 5870 5870 5869 5868 5867 5866 5867 5867 5869 5870 5870 5872 5874 5875 5877 5880
5924 5924 5922 5920 5919 5920 5920 5919 5918 5915 5913 5911 5909 5905 5902 5899 5897 5895 5893 5891 5886 5883 5876 5873 5871 5869 5868 5868 5868 5866 5865 5864 5861 5862 5862 5862 5863 5865 5867 5868 5869 5870 5871
5924 5924 5922 5922 5921 5921 5919 5918 5917 5914 5912 5910 5907 5904 5901 5899 5896 5892 5891 5889 5886 5883 5878 5874 5871 5868 5865 5865 5864 5863 5861 5860 5857 5855 5854 5852 5856 5859 5861 5862 5864 5865 5866
5924 5923 5921 5920 5919 5918 5918 5918 5915 5913 5911 5909 5906 5903 5900 5896 5893 5891 5889 5885 5882 5880 5877 5874 5871 5868 5864 5862 5860 5859 5858 5855 5854 5851 5846 5846 5849 5852 5855 5856 5859 5861 5863
5923 5922 5920 5919 5917 5915 5915 5914 5913 5912 5910 5907 5904 5901 5899 5895 5890 5886 5884 5881 5879 5876 5874 5870 5869 5867 5864 5861 5856 5853 5851 5850 5849 5846 5845 5843 5845 5847 5849 5850 5853 5856 5858
5921 5920 5918 5917 5916 5914 5912 5910 5910 5908 5906 5903 5901 5896 5893 5891 5887 5883 5880 5876 5874 5871 5870 5867 5862 5861 5860 5859 5855 5851 5846 5843 5843 5842 5841 5840 5839 5840 5843 5845 5847 5849 5852
5918 5917 5915 5914 5913 5910 5908 5907 5905 5902 5899 5897 5895 5893 5889 5886 5882 5878 5875 5871 5867 5863 5861 5861 5859 5854 5851 5851 5852 5849 5844 5839 5837 5837 5836 5836 5835 5836 5837 5838 5840 5840 5844
5913 5911 5910 5910 5907 5904 5902 5900 5898 5894 5892 5888 5884 5882 5880 5876 5873 5869 5866 5863 5860 5858 5853 5851 5851 5850 5847 5842 5840 5841 5840 5838 5833 5831 5830 5830 5830 5830 5830 5831 5832 5833 5835
5907 5906 5904 5901 5899 5896 5893 5891 5889 5887 5884 5880 5875 5871 5869 5867 5863 5858 5854 5851 5848 5845 5845 5843 5840 5839 5837 5835 5832 5831 5831 5830 5830 5827 5824 5823 5823 5823 5824 5823 5822 5823 5824
5903 5899 5895 5891 5887 5887 5884 5883 5879 5877 5875 5872 5866 5862 5857 5853 5850 5846 5843 5839 5836 5835 5832 5830 5829 5827 5826 5824 5822 5822 5821 5819 5819 5821 5819 5816 5816 5815 5815 5817 5816 5815 5816
5898 5895 5885 5865 5873 5873 5871 5870 5870 5866 5864 5862 5858 5853 5847 5841 5836 5833 5830 5826 5822 5819 5818 5817 5814 5812 5811 5809 5809 5808 5808 5809 5808 5806 5809 5810 5807 5807 5806 5806 5807 5809 5809
5887 5883 5875 5869 5863 5853 5854 5859 5860 5856 5853 5849 5844 5839 5835 5828 5823 5821 5817 5811 5805 5801 5801 5799 5797 5795 5793 5792 5791 5791 5793 5794 5796 5795 5795 5798 5798 5799 5797 5798 5798 5799 5801
5878 5874 5867 5861 5854 5841 5843 5845 5848 5846 5839 5833 5828 5826 5822 5814 5809 5806 5802 5797 5792 5786 5783 5782 5780 5778 5776 5774 5775 5775 5776 5777 5779 5782 5782 5784 5787 5788 5788 5788 5790 5791 5792
5864 5864 5859 5853 5846 5840 5834 5835 5832 5830 5826 5821 5815 5811 5806 5801 5795 5790 5784 5778 5776 5772 5767 5763 5763 5764 5762 5759 5757 5759 5760 5761 5762 5766 5768 5768 5773 5774 5778 5779 5779 5781 5782